CAPE
1965 2305 2651 3185 3365 3135 2862 2735 2590 2540 2486 2418 2390 2336 2344 2547 2510 2497 2566 2381 2207 2210 2115 1971 2174 2047 2010 2046 2081 1864 1860 1998 1908 1790 1691 1339 1111 1231 1230 1168 1078 1085 1041 1083 862 773 709 702 628 620 582 606 674 720 801 804 805 767 779 709 647 537 491 418 370 334 390 410 389 596 566 767 1225 1234 1203 1141 1067 893 782 733 652 584 446 341 113
2094 2416 2664 3161 3241 3010 2843 2755 2625 2558 2567 2533 2455 2394 2439 2580 2643 2623 2583 2400 2385 2427 2299 2225 2211 2181 2129 2101 1971 1884 1852 1865 1909 1908 1802 1516 1048 927 998 928 906 1039 971 842 694 670 670 521 384 404 365 422 478 574 623 659 690 596 637 675 635 600 477 378 427 542 546 568 642 646 676 780 752 946 1082 1101 1042 865 672 578 519 388 315 324 274
2224 2461 2566 3088 3175 3108 2883 2770 2649 2585 2567 2587 2539 2483 2500 2553 2631 2658 2623 2460 2291 2295 2430 2306 2132 2060 1996 2042 1944 1958 1945 1852 1738 1695 1583 1500 1027 670 739 850 906 949 1021 887 957 991 954 891 769 568 573 621 643 596 620 596 555 688 691 708 671 672 706 699 768 807 862 898 889 764 779 771 788 933 973 978 1104 951 724 452 395 308 183 248 252
2146 2376 2777 3142 3236 3173 2961 2719 2657 2634 2560 2564 2567 2569 2595 2641 2646 2536 2365 2263 2213 2237 2235 2078 1923 1948 1993 1924 1868 1968 2150 1893 1662 1620 1556 1360 1097 957 968 1060 1002 1103 1273 1250 1197 1160 1100 1132 1013 878 787 707 699 659 588 621 707 784 756 716 721 766 710 724 800 848 831 826 848 682 708 451 505 731 830 851 921 708 656 562 467 347 92 13 8
2131 2395 2796 3015 3236 3153 3027 2862 2646 2682 2606 2595 2629 2727 2732 2712 2660 2531 2407 2288 2295 2290 2163 2027 2040 2037 1926 1848 1899 1714 1867 1805 1938 1972 1655 1377 1194 1050 1212 1193 1082 951 1105 1266 1131 991 978 927 842 762 787 659 554 530 551 653 793 802 782 796 762 794 786 745 782 767 708 712 710 533 259 262 357 583 696 767 664 468 305 193 184 237 386 352 298
2178 2505 2702 2906 3218 3216 3150 2954 2781 2767 2679 2658 2616 2671 2726 2817 2736 2612 2454 2336 2302 2250 2162 2106 2096 1988 1973 1871 1587 1496 1452 1582 1822 1694 1580 1603 1341 997 1236 1250 1217 931 1062 1017 834 948 1043 926 877 884 951 929 728 700 728 784 754 803 795 780 826 856 805 764 814 840 850 743 644 439 449 322 403 431 584 627 713 767 647 505 406 336 336 288 145
2175 2368 2574 2808 3101 3290 3194 3016 2975 2818 2662 2610 2632 2679 2696 2854 2828 2760 2605 2446 2347 2333 2254 2205 2108 1942 1721 1512 1345 1279 1582 1683 1747 1921 1926 1674 1556 1348 1024 1071 1107 1146 998 905 788 814 1113 1202 1274 1326 1059 672 661 823 812 792 825 820 834 832 818 810 811 866 890 703 743 514 356 378 389 237 378 381 532 443 372 360 476 605 519 327 85 73 115
1998 2310 2575 2817 2983 3103 3154 3055 3011 2886 2669 2627 2697 2720 2754 2895 2775 2707 2605 2449 2351 2379 2349 2180 2115 1949 1593 1252 1191 1300 1408 1538 1634 1752 1800 1907 2034 1954 1230 730 896 873 753 762 1107 917 1202 1104 1189 1058 924 835 883 861 983 1037 925 831 759 705 656 605 535 588 597 833 796 442 304 170 112 455 615 656 662 694 905 764 595 432 186 38 14 26 13
1831 2304 2545 2796 3032 3141 3144 3072 3004 2902 2741 2738 2748 2777 2837 2924 2804 2712 2716 2523 2421 2457 2404 2224 2106 1818 1599 1404 1317 1260 1306 1436 1633 1824 1992 2164 2187 1941 1881 2272 1831 1581 2051 1376 1144 1068 1062 1035 970 832 873 803 1032 1102 1082 1054 1027 921 848 791 691 683 612 505 576 494 617 442 126 315 407 510 568 598 620 670 884 513 301 284 303 141 87 75 6
1626 2232 2616 2836 2976 3094 3117 3090 2977 2968 2830 2798 2828 2866 2868 2869 2744 2715 2731 2582 2551 2536 2424 2342 2046 1853 1688 1560 1393 1264 1303 1642 1638 1618 1864 1829 1977 1988 2026 2035 1994 2387 1830 1255 1124 1033 1104 1050 946 851 941 1062 1158 1118 1134 1067 965 925 890 845 812 730 684 774 475 429 298 234 251 281 364 462 552 581 690 853 763 401 97 83 590 119 105 14 0
1549 2228 2612 2773 2912 3024 3041 3095 3072 3021 2913 2930 2855 2921 2911 2912 2817 2734 2752 2768 2718 2590 2403 2331 2155 1989 1835 1615 1515 1438 1654 1886 1879 1808 1918 1833 1987 2166 2086 2072 2175 2058 1792 1307 1130 1071 1158 1186 1089 1045 1162 1185 1128 1152 1127 1062 981 946 811 853 753 711 754 614 446 468 308 278 257 444 688 715 510 594 820 850 671 456 268 135 120 70 14 20 32
1462 2134 2503 2632 2618 2924 2973 3029 3073 3034 3042 3021 3002 2937 2906 2894 2860 2803 2830 2799 2743 2637 2431 2359 2302 2152 1873 1701 1623 1630 1663 1973 1850 1799 1807 1888 1792 1803 1815 2082 2180 2265 2102 1815 1595 1540 1482 1414 1421 1361 1252 1185 1031 1008 1043 1061 1036 937 840 734 680 856 804 489 434 360 278 228 344 284 317 447 493 464 573 568 515 363 325 324 199 153 124 60 4
1400 1977 2341 2500 2738 2867 2957 3038 3078 3128 3140 2961 3010 3030 2959 2924 2866 2839 2811 2705 2665 2560 2460 2374 2257 2161 2057 1913 1854 1956 2112 2169 2160 1892 1749 1814 1812 1726 1766 1888 2116 2178 2189 2089 1879 1692 1587 1433 1335 1207 1166 1128 906 929 982 1012 909 873 830 642 778 868 825 545 332 258 233 240 228 176 324 435 551 758 597 546 458 342 211 90 94 98 64 35 4
1403 1897 2172 2402 2658 2742 2884 2990 3077 3117 3133 3119 2970 2949 2943 2921 2856 2839 2691 2598 2610 2511 2362 2304 2274 2242 2171 2178 2304 2333 2261 2198 2274 2212 2007 1937 1836 1592 1708 1539 1622 1871 1987 1956 1724 1554 1603 1533 1384 1181 1096 981 871 822 862 868 948 903 840 796 855 977 793 607 343 191 312 343 260 237 307 430 507 633 474 338 221 342 273 221 142 102 66 25 29
1443 1696 1824 2372 2537 2800 2900 2924 2981 3116 3165 3087 3025 2953 2855 2810 2748 2592 2589 2695 2637 2440 2394 2442 2396 2393 2446 2455 2433 2361 2322 2303 2373 2298 2208 2150 1891 1830 1743 1552 1570 1609 1630 1705 1680 1589 1582 1352 1247 1091 952 854 843 800 800 815 840 947 1004 987 888 1042 1076 445 326 394 415 357 362 219 230 342 725 569 452 356 300 318 265 173 168 133 100 71 25
1272 1500 1909 2304 2519 2678 2851 2936 2982 3052 3132 3098 3047 3000 2913 2852 2701 2702 2719 2715 2557 2450 2503 2517 2582 2634 2560 2383 2291 2442 2473 2411 2380 2341 2259 2239 2050 1952 1927 1757 1722 1747 1773 1752 1618 1558 1495 1361 1094 979 951 965 865 847 760 812 866 1080 1082 1131 989 1138 1297 754 418 468 364 393 258 252 250 398 706 540 380 263 279 162 274 166 103 162 166 211 148
1184 1573 1930 2171 2468 2526 2764 2848 2974 3034 3127 3127 3082 2991 2945 2900 2785 2790 2768 2716 2670 2712 2712 2716 2726 2666 2492 2284 2298 2540 2590 2510 2443 2319 2233 2198 2158 1961 1947 2023 1805 1821 1779 1745 1645 1532 1457 1277 1126 1136 1083 1045 897 1018 1034 1135 1104 1171 1253 1152 1180 1258 1313 764 489 392 349 315 324 294 360 454 631 568 374 273 239 143 293 232 177 301 316 285 197
1249 1482 1804 2135 2152 2358 2658 2712 3043 3076 3135 3217 3167 2993 2965 2932 2890 2495 2508 2837 2915 2873 2829 2818 2746 2637 2594 2429 2456 2647 2696 2559 2449 2379 2298 2175 2142 1997 2128 2304 2033 1930 1848 1767 1690 1611 1445 1263 1253 1221 1183 1076 1090 1147 1232 1338 1301 1212 1254 1168 1209 1318 1408 752 482 340 325 523 332 428 295 478 670 506 346 318 241 313 345 165 58 83 153 168 247
1174 1386 1722 1884 1967 2392 2491 2715 2831 2962 3162 3178 3157 3213 3082 2993 2007 1753 2261 3115 3049 2979 2950 2925 2833 2783 2716 2576 2628 2750 2789 2644 2496 2469 2314 2270 2203 2180 2376 2470 2345 2095 1974 1827 1717 1676 1547 1367 1304 1208 1076 1117 1148 1170 1326 1436 1351 1255 1146 1314 1362 1440 986 581 439 326 438 345 344 308 317 625 620 508 388 340 310 197 169 97 155 59 437 459 348
939 1268 1442 1590 2024 2301 2328 2390 2574 3006 3226 3334 3423 3511 3494 2382 1762 1692 2305 2218 2644 2659 3042 3139 3188 3133 3152 2890 2835 2971 2993 2945 2895 2642 2576 2377 2307 2241 2613 2610 2513 2341 2124 1899 1735 1681 1640 1539 1306 1213 1175 1230 1237 1338 1333 1357 1302 1296 1059 1290 1320 918 448 480 427 356 277 302 328 307 530 699 704 489 442 372 299 233 188 146 62 74 36 154 520
1024 1143 1198 1453 2071 2205 2089 2082 2373 2798 3220 3502 3413 3288 2700 1456 1768 1934 2037 2480 2536 2447 2622 2643 2378 2596 2811 2725 2625 1836 1571 2051 1980 2545 2994 2437 2151 2518 2717 2626 2489 2364 2140 1976 1809 1747 1761 1668 1492 1323 1231 1195 1261 1344 1422 1338 1325 1313 1359 1159 911 523 532 502 389 287 173 395 431 341 782 673 569 528 467 391 314 213 156 118 123 53 52 566 673
1070 975 1303 1604 1982 1995 2006 1931 2188 2786 2899 3378 3347 2930 2149 2068 1823 1849 2428 2490 2758 2093 1979 2016 2267 2376 1916 1584 1860 1954 2171 2162 2034 2292 2581 2394 2609 2735 2862 2748 2625 2435 2338 2146 1920 1935 1831 1868 1658 1456 1357 1319 1164 1202 1042 1046 1306 1386 1105 1392 511 514 525 412 325 174 302 343 364 448 764 668 565 529 536 432 324 209 113 91 109 97 89 124 425
1122 1309 1629 1914 1975 1980 1983 2055 2270 2727 2788 3144 3148 3307 2934 2170 2102 2140 2662 2654 1742 1874 1572 1551 1684 2322 2125 1999 1783 1839 2292 2191 1907 1783 1667 2125 2277 2833 2795 2924 2746 2528 2281 2270 2084 2023 1933 1868 1862 1670 1445 1375 1148 717 583 456 431 909 1206 660 617 674 467 412 251 217 250 247 291 731 835 882 615 543 582 492 358 217 130 110 109 92 94 122 156
1438 1680 2000 2267 2286 2214 2160 2294 2689 2855 2779 2737 2946 3376 3287 2584 2568 2215 2673 2234 2115 1861 1415 1388 1560 2130 1893 1447 1162 1587 1950 1975 1694 1726 1907 1685 1634 1851 1571 2408 2970 2704 2335 2128 2094 2029 1945 1885 1831 1778 1546 1245 811 519 318 90 70 1 104 402 705 720 560 364 280 297 210 578 369 936 967 860 808 765 694 476 355 274 175 161 131 92 121 113 92
1684 1912 2406 2629 2584 2446 2337 2526 3076 2937 2834 2834 2953 3138 3208 2933 2220 2283 2386 2271 1949 1512 1259 1156 1448 2055 1898 1723 1454 1504 1675 1568 1644 1597 1636 1171 1226 1377 1314 1437 2155 1979 1873 2140 1931 1996 1953 1760 1812 1808 1370 900 634 386 5 191 89 10 145 619 638 794 642 469 399 271 387 599 602 1130 1048 1135 972 867 710 595 430 351 253 184 160 136 59 69 83
1748 2143 2638 2775 2721 2555 2508 2461 2913 2718 3192 3096 2810 3021 2914 3001 2559 2130 2305 2220 1797 1467 1430 1300 1396 1605 1949 2156 2080 1946 1354 1372 1725 1992 1428 1406 1324 1450 1016 950 1571 1852 1811 2105 2043 1901 1764 1643 1647 1648 1418 941 547 365 0 54 327 473 491 549 651 831 852 689 678 442 555 589 833 1218 1200 1218 1143 846 749 661 556 467 312 215 212 148 60 63 58
1922 2333 2766 3078 2820 2918 2710 2545 3201 2975 2707 2692 2492 2788 2387 2573 2344 2111 2141 2081 1730 1451 913 1490 1377 1240 1698 1874 2044 1748 1297 1536 1686 1236 919 1117 1398 1467 1354 704 1225 1739 1788 1893 1827 1905 1737 1572 1518 1520 1458 991 660 384 121 104 327 506 523 512 556 798 925 906 662 637 576 669 1036 1267 1202 1237 1148 862 730 701 629 495 416 241 165 161 88 52 35
2052 2576 2952 3378 3171 3371 3002 2411 1946 2468 3005 2719 2406 1853 2112 1799 1792 1588 1878 2023 1712 1716 1483 1579 1366 1466 1716 2158 1850 1647 1342 1052 857 1125 1793 1032 1278 1264 1242 1164 825 1198 1363 1841 1996 2012 1766 1551 1508 1552 1460 1088 718 362 177 230 318 277 228 410 658 632 670 896 791 796 670 769 991 1264 1135 1051 974 900 664 691 683 609 505 343 232 180 116 66 39
2268 2902 3295 3437 3442 3360 3067 2729 2446 2595 2738 2657 2365 1655 1309 1259 1553 1521 1715 2116 2015 1861 1620 1614 1485 1328 1608 2162 2099 1701 1382 985 986 1177 1235 919 1294 1134 1122 1053 649 722 1324 1526 1797 2021 1820 1594 1552 1536 1371 837 402 366 204 262 223 236 161 343 493 695 726 774 770 824 785 874 904 1016 925 740 721 756 746 727 691 734 703 538 297 243 179 106 44
2341 2272 2482 2960 3272 2997 2987 2774 2338 2367 2650 3278 2320 2042 1458 1429 1556 1479 1887 2239 1902 1720 1543 1370 1308 1212 1576 1799 2074 1688 1044 986 1270 1617 1822 891 1261 1340 1301 906 673 1117 972 1458 1889 1819 1835 1559 1342 1320 1254 822 607 386 266 116 175 7 172 356 318 644 751 753 785 878 724 812 803 846 968 694 713 870 910 863 734 790 825 748 617 413 250 196 107
2338 1958 2348 3072 3077 2870 2480 2319 2345 2710 2751 3314 2614 2341 1592 1375 1312 1421 1272 1304 1420 1092 927 1123 1267 1339 1293 1501 1828 1775 1165 936 1460 1629 1781 1391 1321 1303 1506 1433 1230 1204 1272 1564 1592 1652 1697 1681 1158 1096 1264 1033 606 464 448 403 361 276 172 217 96 372 730 802 780 748 777 819 792 802 1016 984 903 1014 912 885 946 868 930 931 852 541 288 255 203
2060 2209 2327 2964 2868 2852 2386 2434 2907 2880 2643 2239 1984 1696 1783 1688 1093 873 802 842 923 801 767 845 1282 1036 1180 1446 1491 1490 1022 1135 1266 1021 2215 1707 1537 1637 1836 1789 1625 1416 1470 1374 1212 1032 1036 1410 1296 1081 1149 918 659 547 531 454 442 367 204 122 62 67 335 694 854 763 815 830 736 732 925 981 1122 1134 1076 898 996 1219 1045 1079 980 766 502 278 284
2137 2312 2396 2498 2637 2771 2065 2316 2226 2375 2221 1758 1742 1727 1987 1681 1346 1018 1004 1171 1030 1140 1195 1250 1498 1671 1535 1390 1387 1146 1548 1461 1454 1460 2036 1768 2042 1953 1795 1644 1596 1412 1497 1203 1004 1105 1331 1383 1210 1126 1023 880 789 569 536 451 419 402 461 396 147 105 131 359 580 785 824 895 783 704 873 932 957 1201 1046 1040 981 1072 1258 1192 1091 980 741 380 264
2068 2287 2218 2523 2697 2535 2325 2180 2000 2101 2176 1945 1693 1850 2302 1852 1355 1088 1414 1142 1004 962 1163 1213 1296 1541 1384 1338 1038 911 1478 1701 1448 1363 1599 1675 2101 1620 1725 1855 1990 1783 1555 1067 1078 1256 1131 998 979 787 829 813 712 586 501 469 426 433 507 563 440 358 107 272 303 457 776 885 863 737 743 842 864 997 1019 1362 1157 1013 1166 1300 1328 1096 937 756 506
1267 1715 1818 2218 2373 2055 2083 2011 1960 2070 1946 1382 1345 1436 1550 1584 1460 1561 1213 982 1023 1205 1123 982 981 1418 1455 1355 1299 1169 1476 1335 1354 1232 1519 1819 1625 1573 1380 1645 1900 1890 1726 1136 1171 1148 790 668 751 579 624 581 572 492 450 433 441 451 357 421 434 348 336 347 426 292 347 650 867 715 625 750 729 815 949 969 1135 1122 1078 1188 1677 1473 1177 885 804
1443 1794 1699 1838 1768 1674 1668 1435 1329 1261 1164 1058 1155 1200 1349 1533 1857 2176 1714 1471 1400 1172 1237 926 1002 992 1167 1482 1283 1333 1010 795 1041 1334 1221 1874 1526 1490 1027 1324 1543 1535 1399 1193 1133 802 642 479 477 505 490 481 476 368 383 384 378 393 404 387 180 316 326 322 338 400 258 286 328 544 631 612 599 620 866 844 922 1004 1058 1107 1348 1466 1431 1259 884
1496 1594 1494 1397 1505 1553 1585 1481 1458 1093 1020 1094 950 791 1187 1464 2088 2285 1937 1615 1316 1234 1338 1143 917 857 1000 884 1029 1192 817 720 501 580 1147 1798 1546 1583 1521 1532 1297 1238 1226 1059 938 776 669 458 305 305 284 341 306 254 34 388 307 271 376 864 436 310 281 277 263 258 108 50 274 284 348 612 670 777 521 642 667 894 1054 1099 1218 1366 1292 1240 1304
1575 1367 1351 1278 1149 1076 896 925 980 1044 1064 627 390 501 479 477 424 1232 1438 1304 1199 1056 1142 1103 945 830 635 516 766 812 549 492 484 723 986 1854 1559 1704 1767 1686 1284 1172 1180 1026 872 742 645 428 316 284 138 17 8 21 317 709 1023 964 1270 1255 1123 858 322 173 214 192 119 58 224 245 253 305 377 534 579 532 514 593 864 1072 1146 1267 1353 1124 1108
1420 1379 1380 1298 1001 843 807 882 767 635 351 272 316 118 43 0 0 747 1076 1322 1481 1453 1119 682 631 688 552 731 846 899 865 353 373 624 947 1914 1608 1620 1566 1501 1276 1104 1097 1033 992 822 687 559 335 284 241 252 286 178 485 918 1101 952 902 975 1129 1169 743 469 476 206 160 8 85 174 206 204 276 301 406 435 385 426 602 845 1081 1176 1294 1320 1004
1338 1267 1208 1014 874 828 842 804 691 511 392 436 348 83 0 0 627 851 1013 1172 1190 997 964 811 707 605 720 722 880 1073 848 973 914 998 1577 1730 1588 1617 1525 1382 1191 1138 1106 1087 1049 997 910 708 597 512 575 733 511 537 704 932 886 973 958 918 1272 1192 671 433 476 375 8 7 17 33 58 116 172 246 410 596 614 610 577 658 930 1112 1220 1309 1212
1238 1254 1148 975 893 862 856 836 846 542 407 381 140 0 0 0 649 888 923 782 483 326 373 532 555 684 532 557 822 842 663 666 845 1382 1768 1744 1674 1688 1628 1492 1317 1191 1141 1204 1234 1261 1223 1017 922 786 677 820 928 874 1026 934 1021 1254 1112 1181 1302 887 439 195 228 169 19 0 0 0 0 2 149 286 642 759 699 820 894 803 689 881 1119 1255 1253
1214 1304 1264 1101 979 871 906 894 1073 673 406 332 0 2 0 0 573 873 671 335 0 0 0 0 0 126 248 478 946 1287 1231 1018 1150 1682 2023 2043 1857 1564 1684 1435 1249 1115 1128 1134 1042 932 900 921 885 1000 1118 1014 1050 1015 1290 1107 893 977 1091 1252 1182 1288 1056 562 97 80 58 0 0 0 0 0 15 351 794 892 738 768 819 976 763 838 960 1050 1196
1108 1318 1352 1225 1025 988 980 1023 1024 147 374 223 0 20 1 0 386 445 0 0 0 0 0 0 0 0 0 0 116 0 518 660 784 1130 1477 1779 1795 1738 1577 1358 1257 1209 1114 1003 874 764 672 647 746 658 772 745 960 902 709 880 926 955 1066 690 806 567 426 453 176 14 39 0 0 0 0 0 0 0 381 826 704 659 842 658 589 757 866 846 1009
883 1325 1442 1314 1149 1117 1120 1075 717 32 423 94 38 27 7 0 263 0 0 0 0 0 0 0 0 0 0 0 0 0 0 0 39 659 960 1304 1655 1695 1557 1440 1338 1255 1105 924 799 671 527 476 785 664 640 548 595 466 540 796 825 894 466 573 818 583 24 29 0 0 0 0 1 0 0 2 0 0 69 323 649 734 722 961 852 558 670 903 501
769 1277 1454 1416 1231 1216 1222 1325 539 14 419 318 0 0 0 0 0 0 0 0 0 0 0 0 0 47 0 0 0 0 0 0 0 0 0 695 1223 1420 1476 1508 1466 1319 1029 818 670 488 400 346 427 585 388 411 460 915 782 766 704 654 502 554 423 477 258 554 15 0 0 2 0 4 114 51 0 2 65 130 186 360 741 885 822 734 569 685 613
782 1166 1502 1452 1371 1371 1339 1373 57 1 160 401 0 0 0 0 0 0 0 0 0 0 0 0 0 0 0 0 0 0 0 0 0 0 0 415 1005 1211 1203 1379 1500 1352 1128 913 618 476 482 500 548 713 515 879 918 856 767 685 641 793 819 474 300 68 495 622 64 1 0 191 0 0 0 0 0 0 8 55 66 117 276 421 747 923 1200 875 845
756 1222 1480 1443 1398 1385 1316 1196 5 2 303 225 73 0 0 0 0 0 0 0 0 0 0 0 0 0 0 0 0 0 0 0 0 0 0 0 0 128 223 522 1068 1348 1061 868 692 606 547 732 808 756 799 828 829 584 948 940 888 599 714 830 540 982 592 180 160 243 0 0 242 195 157 0 112 89 112 124 121 117 129 294 631 1132 1510 1244 809
952 1299 1423 1421 1333 1519 1509 919 0 1 321 0 0 0 0 0 0 0 0 0 0 0 0 0 0 0 0 0 0 0 0 0 0 0 0 0 0 0 0 0 0 110 260 0 142 503 630 580 557 659 836 978 772 816 1055 981 1182 994 810 630 394 539 562 499 384 281 48 53 4 0 152 0 383 332 271 223 240 301 309 198 149 422 621 914 1115
1013 1277 1429 1402 1551 1658 1593 1112 134 239 262 0 0 0 0 0 0 0 0 0 0 0 0 0 0 0 0 0 0 0 0 0 0 0 0 0 0 0 0 0 4 6 0 0 0 51 63 53 125 549 666 613 549 678 894 1070 867 563 566 605 616 407 463 374 247 282 324 194 77 0 0 0 0 0 0 9 23 60 169 245 218 123 151 448 513
955 1215 1330 1302 1430 1545 1558 1126 8 186 163 63 0 0 0 0 0 0 0 0 0 0 0 0 0 0 0 0 0 0 0 0 0 0 0 0 0 0 0 0 0 0 0 4 9 4 0 0 0 201 420 268 222 159 170 249 462 546 522 229 79 0 0 0 0 0 183 127 70 0 0 0 0 0 0 0 0 0 14 92 197 178 106 273 315
858 1074 1250 1251 1370 1409 1382 1094 435 6 1 0 0 0 0 0 0 0 0 0 2 1 0 0 0 0 0 0 0 0 0 0 0 0 0 0 0 0 0 0 0 0 0 0 0 0 0 3 0 0 0 0 0 0 0 0 22 32 0 0 0 0 0 0 0 0 0 0 0 0 0 0 0 0 0 0 0 0 0 12 76 100 144 163 178
Wind_Speed
29 34 33 35 39 40 40 41 43 46 47 47 46 45 45 45 45 45 44 42 41 40 38 37 35 35 34 33 32 34 35 35 35 35 33 33 35 35 34 33 32 31 30 30 29 27 26 26 26 27 27 28 28 28 28 29 30 29 28 28 28 28 28 28 26 24 22 22 22 22 19 20 21 19 21 22 22 20 18 16 13 9 8 10 13
35 32 32 35 39 40 41 42 44 46 47 47 46 45 45 45 45 45 43 41 40 38 38 36 36 35 34 33 33 34 34 34 34 34 32 32 32 34 33 33 32 31 29 29 28 26 25 25 24 25 27 27 27 28 27 28 29 28 28 28 28 28 28 27 25 23 23 23 22 21 19 20 20 21 22 22 22 20 17 16 15 9 9 12 12
39 34 33 35 40 43 43 44 45 46 46 46 45 45 45 45 45 43 41 39 39 38 37 36 35 35 34 34 33 33 33 33 33 32 32 31 31 32 31 31 31 31 29 29 28 26 25 25 25 25 25 27 27 26 26 27 28 28 27 27 27 27 28 27 25 24 24 23 22 21 21 20 20 21 22 23 23 20 18 16 15 13 10 14 13
41 34 34 36 40 43 44 44 45 46 45 44 44 44 45 45 44 41 40 39 38 37 37 36 35 35 34 34 33 33 32 32 32 31 31 31 31 31 30 30 30 31 30 28 26 26 26 25 24 24 25 26 26 25 26 27 28 27 26 26 26 27 26 26 25 25 24 22 21 19 16 15 17 20 21 22 22 20 18 17 15 15 nan nan nan
41 38 37 35 37 39 42 42 43 44 44 43 44 45 45 44 42 40 39 37 37 36 36 35 34 34 34 34 33 34 32 32 30 30 30 31 30 31 30 30 31 30 29 28 26 25 24 25 25 24 24 25 23 24 25 26 27 27 26 25 25 26 25 26 26 27 26 23 22 19 16 16 15 21 21 23 22 20 18 17 17 16 15 15 14
43 41 36 33 33 34 37 40 42 43 43 44 45 45 46 44 41 39 37 36 37 36 35 34 33 33 33 33 34 33 32 31 30 29 29 29 29 28 30 30 30 30 27 26 25 25 24 25 26 26 25 24 23 24 24 25 25 25 24 24 24 24 23 25 27 29 25 23 22 18 17 16 16 16 22 22 21 19 19 18 17 17 17 17 17
44 40 34 29 30 31 37 41 42 42 43 44 45 45 44 43 40 38 36 36 36 36 34 33 33 33 33 34 33 33 32 31 31 30 29 29 28 27 29 30 29 28 27 25 26 24 24 25 27 27 26 24 23 22 22 24 25 25 24 24 23 23 22 22 23 26 23 23 20 18 17 17 16 14 21 21 21 20 21 20 20 18 nan nan 16
43 41 38 35 34 36 41 42 41 41 42 43 44 44 44 42 39 37 36 36 36 35 34 33 33 33 33 33 32 32 32 32 32 31 30 29 28 26 27 28 28 27 26 27 27 24 26 26 28 27 25 23 22 21 21 22 23 24 23 22 22 21 21 21 23 23 21 20 20 18 17 18 19 17 21 21 21 21 21 21 20 nan nan nan nan
44 44 43 42 41 43 44 42 40 41 42 43 43 43 42 39 36 36 35 35 36 35 34 34 34 34 34 33 33 32 32 32 32 32 30 29 28 29 30 30 29 27 27 28 25 24 24 26 28 28 24 22 21 20 19 21 22 22 22 21 21 20 21 21 20 21 19 20 20 18 18 19 17 17 20 22 22 22 22 20 20 20 nan nan nan
46 46 45 44 43 46 45 43 40 42 42 42 42 39 38 36 35 35 35 36 36 36 35 36 36 36 35 34 33 33 32 32 32 32 31 31 30 30 30 30 30 29 29 27 25 24 24 26 27 27 25 21 20 20 19 19 21 21 21 21 20 19 19 20 19 18 19 22 21 18 18 19 17 17 21 22 22 21 nan nan 17 17 17 nan nan
45 46 45 46 46 48 48 44 41 41 40 39 37 35 34 33 33 35 35 36 36 37 36 37 37 37 36 35 34 33 32 32 31 31 31 31 30 30 31 31 30 30 29 27 24 23 24 26 27 27 25 22 20 20 19 19 19 20 21 20 20 19 20 23 23 23 24 24 20 17 20 23 18 17 24 23 23 22 20 20 20 nan nan nan nan
43 43 44 43 48 48 48 46 41 38 36 33 32 31 32 32 33 35 36 36 37 37 37 37 37 38 38 36 35 33 33 32 31 30 30 30 31 32 32 31 30 30 29 27 25 24 25 25 25 26 24 23 21 20 19 18 18 20 22 21 20 20 23 26 24 25 25 24 21 20 20 20 19 21 25 23 23 22 22 21 20 21 22 nan nan
41 40 41 42 44 47 46 44 38 33 30 29 28 29 30 32 34 35 36 36 36 37 38 38 38 38 37 36 35 33 32 31 29 29 30 29 30 31 30 31 30 29 28 27 26 24 24 24 24 24 22 22 21 19 19 18 19 22 22 22 21 23 25 26 23 24 24 24 22 20 20 20 20 26 24 23 23 22 21 nan nan nan nan nan nan
39 39 39 40 41 44 41 38 33 29 26 25 26 28 30 33 34 34 34 35 36 36 37 37 37 37 36 35 34 33 32 31 29 29 30 29 30 30 29 30 29 29 27 26 25 25 24 25 25 23 21 21 21 19 18 19 21 22 22 21 22 23 25 23 22 24 24 23 22 21 21 21 21 27 26 23 23 22 21 21 21 21 nan nan nan
36 37 37 36 36 34 37 32 28 26 24 24 26 28 31 32 32 32 33 34 35 35 36 36 36 36 35 35 35 34 33 32 30 30 30 29 29 28 28 29 28 27 26 25 25 25 26 26 25 24 23 23 22 18 18 19 20 21 21 21 21 22 24 21 22 24 24 23 23 23 22 22 26 27 28 25 22 22 22 21 21 21 20 nan nan
32 33 33 31 30 29 27 27 25 24 24 25 27 30 32 32 32 33 35 36 36 36 35 36 36 35 35 35 35 35 34 33 32 31 30 29 29 28 28 29 28 27 26 24 24 25 26 26 25 24 24 23 21 20 19 18 20 20 21 21 21 22 23 23 23 24 24 24 24 24 23 23 25 27 28 25 23 22 22 22 22 21 20 19 19
30 29 29 27 26 24 22 21 22 25 25 28 30 33 34 35 35 37 39 39 38 37 36 37 37 35 35 35 35 35 34 33 33 32 31 30 29 28 28 27 28 26 25 24 23 23 24 24 22 22 21 20 20 19 20 20 20 21 22 21 21 22 25 23 23 24 25 25 25 25 23 22 26 28 29 27 23 22 21 22 22 21 20 19 19
27 26 24 22 21 20 20 19 21 23 24 29 33 35 36 37 38 40 41 38 36 34 35 35 35 35 35 36 36 36 36 35 34 33 32 31 29 28 28 27 27 26 24 24 23 22 21 21 20 19 18 18 18 18 20 20 21 22 22 21 22 24 25 24 22 24 25 26 26 26 25 24 27 28 29 28 24 22 23 22 nan nan 21 20 20
22 22 20 19 18 19 19 20 22 24 26 28 29 33 36 37 42 41 32 32 30 30 31 32 32 33 34 34 35 36 36 35 34 33 32 31 30 28 27 26 26 26 24 24 23 22 20 19 19 19 18 17 16 18 19 19 20 22 22 22 26 25 26 23 22 22 25 27 26 27 26 25 25 27 28 28 26 24 22 nan 22 nan 22 20 19
21 19 17 16 17 18 19 21 22 24 25 26 28 31 36 45 46 36 29 26 28 28 28 27 28 29 30 32 34 35 33 32 31 30 31 32 30 25 26 27 27 27 25 24 23 22 20 18 18 19 19 17 16 16 18 18 20 22 20 24 26 27 23 23 22 22 24 26 27 27 27 27 25 26 28 27 26 24 24 23 nan nan nan 20 20
21 18 16 15 17 19 20 22 25 27 27 27 29 32 39 44 38 35 30 30 32 34 30 27 24 24 26 29 32 31 28 28 25 25 30 30 28 26 26 28 28 28 26 23 23 21 19 17 17 18 18 17 15 15 17 18 19 20 20 23 26 24 23 23 23 23 22 25 28 28 29 29 26 26 27 27 26 25 24 23 23 nan nan 22 20
23 20 18 18 20 20 23 27 27 28 28 27 28 31 33 37 33 29 28 30 33 38 31 25 21 23 33 32 25 25 23 26 25 28 26 25 25 27 26 26 28 28 26 24 23 21 19 18 17 17 17 16 14 18 19 21 21 19 20 22 24 24 26 25 23 22 22 24 27 28 30 31 29 27 27 27 26 26 24 nan 23 nan nan 21 22
20 19 18 18 20 23 25 27 28 28 30 28 26 26 30 28 28 26 28 31 35 32 28 27 23 20 33 28 25 30 26 28 26 29 27 22 20 22 24 25 24 26 26 25 24 22 20 19 17 17 17 16 18 19 19 20 20 21 22 22 23 23 26 24 24 24 22 23 26 26 30 32 32 28 27 28 27 26 24 25 24 nan nan 22 20
20 19 19 19 21 22 24 25 26 26 28 25 24 26 26 27 26 26 29 31 30 28 27 27 24 23 33 28 27 29 31 28 27 29 29 22 21 23 24 18 22 25 25 24 23 22 21 19 19 19 18 19 19 19 19 nan nan nan 21 22 23 21 24 24 25 24 23 22 24 25 29 32 33 31 29 28 28 27 25 26 25 nan 24 22 nan
21 23 24 21 20 20 22 23 25 25 26 25 25 25 26 28 28 29 32 30 29 27 26 25 27 29 32 30 29 27 29 30 29 26 24 22 24 23 21 21 21 25 27 24 23 22 22 22 21 22 19 18 17 16 nan 19 nan nan 23 23 25 21 23 24 25 25 23 23 23 24 28 32 34 33 31 29 29 28 26 27 26 25 nan nan nan
21 22 23 21 18 18 21 22 24 23 23 22 24 26 30 28 27 29 31 30 30 26 26 24 27 29 30 28 29 28 27 28 27 29 25 19 22 23 21 20 21 21 24 23 22 22 22 21 21 21 18 18 16 16 nan nan 19 20 20 20 23 19 23 24 25 26 25 25 24 24 27 31 34 34 33 31 30 29 28 27 27 26 nan nan nan
20 20 22 20 18 18 20 23 23 23 19 17 21 26 26 24 24 26 29 28 26 23 25 24 25 29 26 26 27 27 25 22 27 25 28 24 20 21 17 17 18 17 19 21 18 18 19 19 19 18 19 18 16 16 16 16 18 19 19 19 21 20 24 24 25 27 27 27 26 26 27 29 31 33 34 33 31 30 29 28 28 27 nan nan nan
19 18 19 19 18 20 22 27 28 18 14 12 21 28 26 21 15 20 27 26 26 24 23 23 24 25 23 23 27 25 23 22 24 19 23 24 21 17 17 13 15 13 14 17 17 17 17 17 17 18 19 18 17 16 17 17 18 19 18 18 20 22 24 26 26 27 28 28 29 29 29 29 31 32 33 33 32 32 31 29 29 28 26 nan nan
19 19 20 21 21 22 26 27 20 12 9 13 22 24 24 23 19 21 22 23 24 25 24 23 23 24 23 22 23 24 21 21 22 23 22 21 19 18 15 12 16 14 15 16 17 17 18 18 17 17 18 19 18 18 20 21 21 21 22 24 24 23 25 26 27 30 29 29 30 31 31 31 30 30 31 32 33 33 32 31 29 28 26 25 nan
20 22 22 21 22 24 25 25 20 15 12 15 19 22 25 28 25 24 17 18 24 23 24 23 22 26 26 20 19 21 22 20 19 25 24 19 18 18 17 16 16 15 14 16 15 17 17 17 18 17 18 20 21 21 25 25 25 nan 27 28 26 24 24 23 24 26 27 29 30 31 31 30 28 28 29 29 31 33 33 33 31 29 27 25 25
21 20 21 21 21 21 23 23 17 16 15 15 20 24 24 26 29 28 25 23 25 23 23 20 20 26 27 23 21 20 21 19 17 20 18 17 18 15 18 15 9 7 8 11 14 15 16 16 16 16 18 21 22 24 28 27 27 28 28 29 nan 27 27 25 24 24 25 27 29 32 32 30 28 27 26 27 28 31 33 33 32 31 29 27 25
21 17 19 20 19 19 17 17 17 16 18 17 17 23 25 25 26 25 24 22 22 24 21 17 14 22 25 23 23 21 19 17 16 16 14 14 16 13 15 11 7 8 8 9 10 13 15 16 18 20 22 21 22 23 23 25 26 28 29 30 nan nan 29 28 27 25 24 24 26 29 32 32 28 26 25 24 26 28 31 33 33 32 31 28 26
17 18 22 21 19 17 16 15 17 16 17 17 16 19 21 24 24 23 23 22 21 20 21 17 15 17 22 21 24 17 14 17 14 12 15 17 17 14 13 14 15 15 10 8 8 9 12 16 19 22 25 24 24 22 21 23 26 27 28 29 31 32 29 29 28 26 24 23 22 26 30 32 31 27 24 23 23 26 27 30 31 32 31 31 29
21 21 22 21 19 18 17 18 17 18 18 19 18 21 21 21 22 22 22 20 19 18 15 21 18 19 25 27 26 22 16 13 10 11 13 13 16 16 15 16 17 15 11 9 9 9 12 12 12 17 21 23 24 21 22 24 24 25 28 28 32 32 31 29 28 27 25 23 23 24 28 33 34 32 29 25 23 24 25 27 28 30 31 31 31
22 17 20 20 19 19 20 19 19 22 22 22 22 21 20 21 20 21 22 21 19 17 13 19 23 21 22 24 25 24 23 7 9 10 10 9 11 14 14 15 16 15 13 11 12 10 12 12 11 14 14 18 20 20 21 22 23 26 27 28 32 32 33 31 28 28 27 24 22 22 26 30 35 35 32 30 27 24 24 25 27 28 28 30 31
7 11 20 21 21 22 23 22 22 23 23 23 21 21 20 19 19 20 22 21 21 20 15 18 19 20 23 24 23 22 20 18 18 11 8 9 8 12 13 13 14 13 12 12 11 12 11 10 8 10 12 13 16 17 18 20 22 24 24 27 28 29 32 30 29 27 25 24 23 23 23 28 34 35 32 31 29 27 23 23 25 27 27 29 30
14 20 19 22 22 24 25 24 23 23 21 21 21 21 21 20 20 21 21 23 23 21 20 17 18 18 20 24 23 19 17 18 19 17 10 8 12 14 13 13 13 13 12 12 12 10 11 11 7 4 8 10 12 14 nan 16 19 22 24 25 25 25 26 26 24 24 23 nan 22 23 25 27 31 33 33 31 29 28 24 21 23 24 26 29 29
19 19 20 22 23 23 23 22 21 21 20 20 21 22 22 21 22 23 22 23 24 25 23 20 18 17 18 19 20 17 18 13 12 13 11 7 11 14 14 12 13 13 12 12 13 12 11 11 10 5 6 nan nan nan 13 15 17 20 22 22 22 23 23 23 22 22 23 nan 22 22 22 25 29 31 33 32 29 28 27 24 21 23 25 27 28
17 17 18 20 22 22 21 19 19 19 18 18 20 22 nan nan nan 24 24 24 23 23 25 23 21 18 16 16 15 16 15 13 10 9 8 8 10 11 14 13 13 13 13 13 13 14 13 10 11 9 7 7 10 11 13 14 15 15 16 17 18 17 18 21 20 20 20 nan nan 20 19 21 24 29 32 32 32 30 29 29 29 28 27 24 27
14 16 19 21 23 22 20 18 18 17 16 17 19 nan nan nan 25 23 25 23 22 23 22 25 27 22 18 15 16 18 17 13 12 10 10 10 10 11 13 14 14 15 15 15 14 15 15 14 11 11 11 10 9 10 12 13 11 11 10 10 12 13 15 16 17 17 nan nan nan nan nan 19 20 22 26 30 32 33 33 33 32 31 31 28 26
17 19 21 23 24 22 21 18 15 15 16 16 18 nan nan nan 22 24 24 20 22 21 22 22 24 24 24 18 14 14 21 19 15 14 14 13 13 13 13 13 16 16 16 15 15 17 16 15 13 11 12 12 10 10 10 13 12 7 7 9 11 12 13 14 16 17 nan nan nan nan nan nan 20 21 22 25 31 33 36 35 35 34 34 33 32
16 19 22 24 23 21 19 16 14 15 15 15 nan nan nan nan 23 23 23 21 nan nan nan nan nan 23 23 21 17 14 14 17 16 16 16 16 16 15 14 15 17 18 18 17 17 17 17 17 15 13 12 13 13 12 11 15 11 9 11 11 12 13 14 16 nan nan nan nan nan nan nan nan nan 21 21 24 28 33 36 41 42 38 36 37 36
17 20 21 21 21 19 17 16 16 16 14 12 nan nan nan nan 21 19 nan nan nan nan nan nan nan nan nan nan 19 nan 14 14 15 15 16 15 16 16 15 17 18 19 19 18 18 17 17 18 16 16 15 16 14 15 11 14 14 15 11 15 14 16 16 18 18 nan nan nan nan nan nan nan nan nan 21 22 26 28 33 40 39 39 36 37 39
17 18 19 21 19 19 19 17 16 nan 13 nan nan nan nan nan 20 nan nan nan nan nan nan nan nan nan nan nan nan nan nan nan nan 15 15 15 16 16 16 17 17 17 19 19 17 17 17 17 17 16 17 19 14 15 13 13 13 18 14 14 15 18 nan nan nan nan nan nan nan nan nan nan nan nan nan 22 24 26 29 32 30 33 37 39 45
17 17 18 19 18 20 20 18 16 nan 13 12 nan nan nan nan nan nan nan nan nan nan nan nan nan nan nan nan nan nan nan nan nan nan nan 15 15 16 17 17 17 18 19 19 17 16 16 16 18 18 17 18 17 19 18 13 11 17 16 17 18 19 18 18 nan nan nan nan nan nan 22 nan nan nan nan 21 23 25 27 30 28 31 33 37 42
17 17 18 19 21 20 21 20 nan nan 16 15 nan nan nan nan nan nan nan nan nan nan nan nan nan nan nan nan nan nan nan nan nan nan nan 16 17 16 16 17 17 18 18 18 19 17 16 15 16 17 17 19 22 21 20 15 17 21 17 17 18 nan 20 20 nan nan nan 22 nan nan nan nan nan nan nan nan nan 23 26 28 30 28 29 31 33
16 17 18 19 21 21 21 22 nan nan 18 19 nan nan nan nan nan nan nan nan nan nan nan nan nan nan nan nan nan nan nan nan nan nan nan nan nan 18 19 19 19 19 19 19 17 16 16 16 17 17 18 21 20 21 20 20 23 18 18 21 23 23 23 22 21 20 nan nan 21 20 20 nan 22 nan 21 20 21 23 24 26 27 27 26 28 28
17 17 19 19 21 23 23 22 nan nan 20 nan nan nan nan nan nan nan nan nan nan nan nan nan nan nan nan nan nan nan nan nan nan nan nan nan nan nan nan nan nan 19 20 nan 19 18 21 19 16 18 20 21 21 23 22 21 23 20 21 23 24 22 24 24 24 22 nan nan nan nan 21 nan 21 19 19 18 18 19 20 22 23 23 25 27 26
17 18 19 19 19 21 24 23 22 22 22 nan nan nan nan nan nan nan nan nan nan nan nan nan nan nan nan nan nan nan nan nan nan nan nan nan nan nan nan nan nan nan nan nan nan nan nan nan 20 22 23 23 23 23 24 23 25 23 23 25 25 25 24 24 23 24 22 21 nan nan nan nan nan nan nan nan nan nan 16 17 18 20 23 23 25
18 16 16 17 19 20 23 24 nan 24 26 nan nan nan nan nan nan nan nan nan nan nan nan nan nan nan nan nan nan nan nan nan nan nan nan nan nan nan nan nan nan nan nan nan nan nan nan nan nan 21 23 25 23 25 26 26 26 25 25 24 nan nan nan nan nan nan 23 21 nan nan nan nan nan nan nan nan nan nan nan nan 16 16 19 22 22
18 17 17 18 20 22 24 26 27 nan nan nan nan nan nan nan nan nan nan nan nan nan nan nan nan nan nan nan nan nan nan nan nan nan nan nan nan nan nan nan nan nan nan nan nan nan nan nan nan nan nan nan nan nan nan nan nan nan nan nan nan nan nan nan nan nan nan nan nan nan nan nan nan nan nan nan nan nan nan nan nan 18 19 19 21
Wind_Direction
275 278 278 283 287 290 290 291 291 289 288 288 288 288 287 286 285 285 285 285 284 285 286 287 286 287 288 289 289 289 289 289 289 291 292 293 294 292 289 286 283 282 280 277 275 271 269 268 267 266 267 267 266 268 266 261 260 261 260 257 253 250 246 242 239 238 237 236 233 235 239 239 246 255 256 250 246 242 236 231 221 199 181 209 221
286 276 275 280 285 286 287 289 290 288 287 287 288 288 288 287 286 286 285 285 284 285 286 288 288 288 289 290 289 289 288 288 289 290 293 294 294 293 291 289 286 285 280 275 273 269 268 269 267 266 268 268 266 268 266 263 264 264 262 258 255 252 249 245 241 237 236 236 233 237 241 243 244 248 249 250 245 243 242 236 232 194 177 221 226
283 277 274 279 284 284 284 287 288 287 286 287 288 288 288 286 286 285 284 285 285 286 287 288 290 290 291 292 291 289 289 288 289 291 293 294 294 293 291 288 286 284 280 275 274 271 269 268 268 268 267 267 265 266 267 266 269 267 264 260 256 253 250 246 242 240 240 238 237 235 244 246 244 247 247 246 245 242 243 239 231 228 206 221 218
284 279 277 279 282 282 283 285 286 285 285 286 287 288 287 286 285 284 285 286 286 287 288 289 290 292 293 292 291 288 286 286 287 289 290 292 294 293 291 289 288 285 282 276 273 270 269 270 269 268 268 267 266 267 270 269 269 267 263 260 258 256 253 249 245 242 239 237 234 228 217 215 234 246 245 244 246 244 245 244 240 235 nan nan nan
279 280 279 273 274 280 282 283 284 284 284 285 287 288 287 286 285 285 285 286 287 288 290 291 292 293 293 291 289 287 285 285 286 287 288 288 291 293 292 290 288 284 279 276 272 269 268 270 270 268 267 268 266 265 269 269 268 265 262 260 258 259 255 252 248 241 237 235 232 224 219 222 224 244 245 244 243 242 242 242 238 236 234 230 229
277 277 273 267 268 275 280 282 283 282 283 285 288 288 288 286 285 285 286 287 288 290 291 292 292 292 291 289 288 287 286 285 284 284 286 288 291 293 293 293 289 286 282 273 265 263 266 269 269 268 266 264 265 264 266 269 267 263 261 260 257 256 254 254 255 240 230 232 230 220 222 224 225 234 245 244 242 243 246 246 241 235 231 230 227
275 274 272 270 269 273 280 283 281 281 283 285 288 287 288 287 286 285 287 289 290 291 292 292 292 291 290 289 288 287 286 285 283 283 282 283 286 291 291 289 289 285 279 270 263 263 260 264 267 266 266 264 261 263 263 266 264 260 258 254 249 245 239 234 229 231 228 226 227 223 225 227 231 235 251 247 243 242 244 243 240 233 nan nan 226
270 270 270 273 272 273 279 281 278 280 284 286 287 287 288 287 288 288 291 293 293 293 292 293 292 291 289 289 288 287 287 285 284 282 281 282 282 283 286 286 284 285 281 269 264 259 258 261 263 263 264 265 265 261 261 261 261 259 256 256 254 249 241 231 232 233 222 225 229 226 226 229 232 234 245 252 251 248 244 242 241 nan nan nan nan
269 267 267 270 270 273 276 276 276 282 285 285 286 287 288 288 289 292 293 295 294 294 293 292 291 291 290 289 290 289 288 286 284 282 281 281 282 283 282 282 284 279 268 269 265 259 256 258 260 260 264 265 266 263 260 260 260 259 256 254 251 245 237 228 228 240 230 226 234 232 231 233 237 242 252 257 252 246 243 235 234 241 nan nan nan
267 265 265 267 268 270 272 273 278 283 284 284 286 287 288 290 293 295 295 296 295 294 292 291 291 291 291 291 292 292 291 289 287 285 284 284 284 284 281 279 274 272 271 270 266 261 258 258 261 264 263 262 265 267 263 258 256 258 256 251 246 243 237 229 233 245 239 235 237 236 237 245 242 247 258 259 257 253 nan nan 241 237 235 nan nan
267 265 264 265 267 269 270 270 277 281 282 283 286 287 290 293 295 297 297 296 295 294 291 291 291 292 292 294 294 294 293 291 289 287 285 283 282 282 280 277 274 273 271 270 266 261 258 258 262 264 265 262 258 259 258 256 255 254 250 245 241 238 230 231 239 243 243 240 238 238 248 253 244 247 262 262 260 258 256 254 250 nan nan nan nan
268 266 264 265 269 267 267 269 273 277 279 281 285 288 292 295 296 296 296 295 294 293 291 291 292 292 294 296 297 295 293 290 288 287 285 283 281 281 281 278 277 275 272 271 266 262 261 263 264 264 266 264 260 256 256 253 253 248 245 243 237 232 228 236 237 238 240 241 239 239 241 243 246 255 264 265 263 261 260 259 255 246 241 nan nan
266 265 263 261 261 265 265 267 270 271 275 280 283 288 292 294 295 294 293 292 292 292 292 292 293 293 294 295 295 293 290 288 286 285 283 281 279 279 279 280 278 277 274 271 267 263 262 264 265 264 265 265 260 255 253 249 245 242 241 240 236 232 231 240 237 237 239 239 238 240 242 244 247 262 264 265 263 262 263 nan nan nan nan nan nan
267 263 262 259 258 264 263 264 265 267 272 279 284 287 289 291 290 290 290 290 291 292 292 293 293 293 293 292 290 289 287 285 282 282 281 278 279 280 279 280 279 277 274 272 268 264 262 262 263 263 261 261 259 252 247 240 240 238 237 236 235 236 233 236 239 233 235 237 238 238 241 243 248 262 265 266 267 267 264 260 258 255 nan nan nan
273 267 262 257 253 256 267 262 264 267 272 278 281 284 285 286 287 288 289 289 290 291 292 292 292 292 292 291 290 288 286 283 281 280 279 278 280 280 279 279 277 275 274 271 269 267 263 262 262 261 258 255 254 250 245 239 238 237 236 234 234 234 237 235 239 231 233 236 236 237 238 242 255 261 266 265 267 265 264 264 263 261 255 nan nan
277 269 262 255 254 257 258 268 269 270 275 278 281 283 285 284 285 286 287 287 287 288 289 290 291 291 292 292 291 288 286 284 282 281 280 281 280 282 280 278 276 273 271 270 268 266 265 263 262 260 257 253 252 250 242 237 237 237 236 234 232 232 233 242 244 234 230 233 237 238 237 241 257 262 265 267 267 268 265 266 264 261 257 254 249
275 270 266 263 262 259 259 262 271 281 277 279 282 283 285 284 285 286 284 284 285 287 289 291 292 292 292 291 290 289 287 286 285 285 284 284 283 284 283 280 278 275 272 270 266 264 264 263 261 258 255 250 246 244 241 235 237 236 237 235 233 231 232 248 248 239 233 233 236 237 237 237 253 259 263 265 267 267 269 268 266 265 258 253 254
280 276 273 269 264 261 262 264 268 269 271 279 283 285 287 287 287 285 280 280 284 287 290 292 292 292 291 291 290 289 288 288 289 289 289 288 289 287 285 283 280 276 272 267 265 263 263 263 262 258 252 246 241 238 238 235 234 236 236 233 231 230 231 247 247 240 234 237 235 237 238 243 255 261 265 266 264 266 264 262 nan nan 260 256 253
277 269 266 263 259 256 256 257 260 265 271 278 283 289 292 290 281 273 277 283 287 290 292 294 292 291 291 289 288 287 289 290 291 292 292 292 292 289 287 286 282 275 269 264 263 262 261 262 262 260 256 248 238 233 235 233 231 235 232 228 230 231 236 241 242 241 237 238 238 239 242 250 252 262 266 268 268 266 263 nan 263 nan 263 257 253
269 262 258 255 252 251 251 256 261 266 272 279 287 292 294 288 280 280 287 286 286 288 286 290 290 291 292 290 287 280 280 284 292 296 296 296 292 289 291 289 284 277 269 265 262 260 259 258 259 257 256 251 240 233 234 233 231 233 231 230 231 237 232 240 240 239 238 238 239 241 247 253 253 260 264 265 266 266 266 263 nan nan nan 257 256
268 265 256 251 247 248 254 255 257 262 266 272 277 280 280 278 284 296 299 294 292 288 285 280 276 276 280 272 267 274 281 281 285 283 297 294 292 291 290 286 283 278 272 264 262 260 258 256 253 253 254 252 242 235 235 233 234 236 233 234 236 232 233 243 241 240 237 237 240 238 251 254 253 255 259 262 263 263 263 262 262 nan nan 261 258
272 266 250 243 245 248 255 255 260 265 269 276 280 280 281 282 292 295 293 293 287 274 259 253 250 273 266 265 278 279 286 285 284 283 278 280 287 290 285 281 277 276 271 264 262 257 256 252 252 252 251 250 246 234 231 227 229 232 235 240 238 234 237 248 246 242 238 234 238 241 255 257 255 252 256 258 259 259 260 nan 259 nan nan 261 257
264 256 248 249 250 255 259 264 269 274 277 275 274 273 281 288 283 285 283 278 269 271 282 287 290 273 271 276 283 277 279 283 286 281 276 273 275 275 278 278 272 273 270 269 264 260 254 254 254 253 245 241 236 233 231 233 231 226 229 235 241 238 243 245 243 242 241 236 235 247 255 256 257 254 254 256 257 257 257 258 258 nan nan 255 257
261 245 239 241 251 259 270 276 279 277 273 271 267 272 279 280 280 278 277 274 278 282 282 278 272 274 283 290 287 283 279 279 285 290 290 283 274 268 252 256 278 274 271 262 268 267 267 264 260 256 248 238 234 231 229 nan nan nan 232 233 240 237 247 247 248 244 241 243 239 252 254 257 258 257 255 254 255 256 256 258 258 nan 258 256 nan
269 250 236 242 254 266 275 279 280 276 272 271 273 277 277 278 278 279 277 279 276 276 281 285 283 282 288 291 291 290 285 278 273 277 279 275 269 261 263 260 253 258 253 249 255 261 263 258 255 253 249 242 236 231 nan 227 nan nan 233 229 235 233 247 249 249 248 243 242 244 257 254 253 256 257 254 253 255 256 255 257 258 257 nan nan nan
264 260 249 247 257 270 278 278 276 274 274 274 277 278 276 277 283 277 278 277 277 282 283 284 287 286 285 286 285 286 289 278 272 272 265 264 258 253 259 261 256 260 263 255 250 258 262 260 258 256 248 242 236 233 nan nan 230 233 235 238 241 236 246 245 245 248 245 242 245 260 255 252 253 257 256 254 252 255 254 256 256 256 nan nan nan
256 253 249 249 250 255 270 270 263 253 253 263 268 265 264 270 266 270 275 273 275 278 278 282 287 288 289 292 286 280 281 282 271 264 276 270 264 265 265 271 266 266 268 263 254 258 261 261 260 258 250 246 237 232 234 234 238 239 237 237 242 238 244 245 244 246 246 243 244 259 254 253 253 254 256 256 254 253 252 252 256 256 nan nan nan
252 252 250 249 249 251 258 254 246 243 263 277 268 253 263 271 279 283 281 284 287 293 291 294 293 296 294 289 286 285 292 294 283 276 268 266 270 269 275 278 274 276 272 265 257 254 257 255 256 253 252 246 241 235 238 242 245 244 239 241 248 252 248 246 245 246 246 244 242 249 251 253 254 254 256 257 256 254 255 254 253 255 256 nan nan
251 252 248 246 247 243 250 260 260 254 255 263 270 272 280 290 291 300 296 301 301 304 304 303 302 296 288 286 294 296 296 295 291 288 278 265 267 276 279 284 286 288 286 278 267 261 257 253 250 247 249 248 245 240 241 248 251 247 241 243 247 256 260 252 247 246 243 241 244 245 252 253 255 256 257 258 258 258 256 256 255 256 256 256 nan
246 252 251 243 245 253 270 276 257 264 267 275 287 286 290 296 298 302 297 309 311 309 301 306 305 294 289 289 294 298 300 302 296 295 290 285 278 281 280 284 286 290 291 287 273 263 259 249 243 241 244 246 248 251 247 246 245 nan 245 246 245 248 250 252 256 260 257 249 244 244 252 252 254 256 257 259 262 260 259 258 256 256 256 256 256
249 248 244 238 245 258 260 267 273 284 294 293 293 298 302 301 301 305 321 323 309 303 303 309 306 294 294 300 296 298 301 299 305 306 299 292 283 289 291 287 296 321 316 291 268 263 262 261 249 243 242 247 248 247 247 247 244 242 244 247 nan 247 249 250 253 253 254 252 247 245 246 250 249 254 257 259 261 262 261 260 258 256 257 256 255
245 242 236 243 253 261 266 270 276 283 289 289 284 288 300 303 305 307 308 306 299 303 305 305 306 291 299 304 301 296 291 297 307 305 299 289 286 286 282 284 304 332 328 301 277 265 264 259 253 250 250 252 250 249 251 254 251 249 249 251 nan nan 248 249 251 255 253 253 247 244 245 244 245 249 254 255 256 258 261 261 260 259 258 257 256
223 226 238 249 262 264 273 269 275 287 288 282 277 278 289 294 297 297 295 297 302 304 306 305 289 284 289 289 269 252 282 295 292 297 282 284 280 277 290 304 312 317 310 303 284 275 274 263 249 250 252 253 253 255 258 260 261 256 253 252 253 252 248 247 249 252 255 253 251 243 240 241 239 244 249 251 250 251 257 260 260 260 259 258 258
201 213 241 255 260 266 277 278 282 286 287 289 294 296 298 297 298 295 297 299 302 305 311 292 287 277 282 286 295 305 288 272 296 271 262 278 278 274 288 294 300 304 301 299 292 297 294 282 270 258 251 254 256 258 261 261 261 259 253 251 254 256 254 246 243 245 251 253 247 244 239 234 233 236 237 239 245 245 250 254 257 257 257 259 259
181 215 247 257 261 271 271 272 284 290 291 290 296 301 302 300 296 294 300 304 297 301 305 289 287 288 286 287 295 299 289 282 273 272 253 254 265 261 264 277 288 297 302 308 306 304 307 302 296 278 266 259 258 252 253 259 263 263 259 254 255 257 254 247 239 240 240 242 249 248 242 237 233 232 234 235 237 239 239 245 249 254 253 253 259
239 244 258 262 271 276 277 278 285 291 292 296 301 304 303 300 294 294 292 288 293 299 289 279 287 292 294 288 289 299 309 306 290 282 283 284 280 261 253 261 273 283 298 301 302 305 306 299 293 299 285 268 267 259 255 260 260 259 255 253 256 258 254 245 240 238 238 239 237 241 243 239 236 234 234 236 238 240 239 240 244 248 253 251 255
279 267 262 262 271 276 278 283 290 295 294 297 302 302 301 296 290 288 283 283 286 282 281 282 279 284 279 287 299 303 290 295 304 305 302 300 281 270 261 263 270 281 290 296 296 300 304 302 295 279 288 291 279 277 nan 267 266 264 258 253 252 253 248 241 239 241 240 nan 237 242 242 239 236 235 236 239 241 243 243 243 244 245 250 254 253
259 261 266 278 280 278 281 286 290 291 293 299 302 300 298 293 284 283 281 276 277 278 275 274 275 271 277 291 296 290 292 288 285 285 282 280 277 278 272 270 277 281 286 288 290 290 286 300 303 291 296 nan nan nan 280 268 269 269 260 252 248 248 242 238 240 241 240 nan 242 241 238 235 235 235 235 239 243 246 246 247 249 247 247 251 255
257 259 262 269 270 273 276 281 284 283 286 293 294 293 nan nan nan 279 273 269 266 272 284 280 272 276 285 287 288 288 288 293 288 292 299 283 278 273 276 274 271 277 283 285 285 282 284 285 299 298 289 291 299 293 283 273 273 275 261 243 241 246 238 232 238 244 241 nan nan 246 240 235 233 234 234 236 240 243 246 247 248 249 249 252 255
273 269 269 269 269 271 271 272 276 278 282 284 288 nan nan nan 281 278 273 270 272 276 279 286 291 297 296 295 306 302 298 300 305 309 298 291 275 265 271 274 275 281 284 285 285 284 284 282 287 294 293 284 279 278 275 268 265 283 282 242 232 241 237 231 236 244 nan nan nan nan nan 244 242 237 234 236 240 242 244 246 249 249 248 249 252
285 285 280 277 278 279 276 275 273 277 283 287 288 nan nan nan 279 283 286 285 283 280 276 277 281 290 296 300 294 292 299 303 308 306 301 293 277 269 270 271 270 271 273 278 279 278 279 284 289 283 289 285 275 270 271 270 277 276 271 252 232 235 243 242 245 252 nan nan nan nan nan nan 243 242 236 235 241 243 243 245 248 251 252 252 252
293 294 290 286 282 282 282 280 275 281 286 293 nan nan nan nan 293 294 292 292 nan nan nan nan nan 276 280 286 288 284 286 294 291 289 290 287 287 287 279 270 264 265 267 268 269 271 272 275 278 273 272 278 274 270 262 259 249 263 271 259 245 249 255 252 nan nan nan nan nan nan nan nan nan 244 236 237 240 243 245 244 239 242 249 253 253
303 305 296 285 285 285 285 287 289 290 289 291 nan nan nan nan 288 292 nan nan nan nan nan nan nan nan nan nan 279 nan 276 274 280 282 281 278 278 278 278 273 270 273 271 268 268 269 271 274 274 279 274 261 267 265 242 254 263 256 259 259 256 257 250 249 251 nan nan nan nan nan nan nan nan nan 247 244 242 241 242 248 247 245 244 246 249
298 299 297 297 292 291 292 295 298 nan 292 nan nan nan nan nan 282 nan nan nan nan nan nan nan nan nan nan nan nan nan nan nan nan 276 275 280 282 279 270 268 271 272 275 276 273 271 269 267 266 268 269 278 272 272 279 259 262 267 254 254 256 261 nan nan nan nan nan nan nan nan nan nan nan nan nan 247 244 244 248 256 254 252 248 246 243
303 303 303 300 296 300 302 303 302 nan 292 289 nan nan nan nan nan nan nan nan nan nan nan nan nan nan nan nan nan nan nan nan nan nan nan 274 277 277 278 274 273 270 271 274 276 272 269 267 268 270 271 269 271 263 261 261 256 251 255 251 246 251 258 255 nan nan nan nan nan nan 248 nan nan nan nan 237 244 243 242 250 253 253 252 248 246
317 312 308 305 302 304 305 301 nan nan 284 286 nan nan nan nan nan nan nan nan nan nan nan nan nan nan nan nan nan nan nan nan nan nan nan 268 269 271 271 274 276 277 277 273 270 268 267 269 273 270 270 263 267 263 268 272 261 246 244 252 251 nan 255 254 nan nan nan 256 nan nan nan nan nan nan nan nan nan 241 247 249 253 251 251 252 250
313 301 304 307 308 308 309 305 nan nan 286 288 nan nan nan nan nan nan nan nan nan nan nan nan nan nan nan nan nan nan nan nan nan nan nan nan nan 268 272 273 275 277 281 282 281 282 279 267 263 265 270 270 271 267 274 268 260 251 249 247 244 245 254 256 256 258 nan nan 252 252 244 nan 235 nan 229 230 231 233 237 243 248 255 257 254 245
309 307 310 309 310 309 309 304 nan nan 293 nan nan nan nan nan nan nan nan nan nan nan nan nan nan nan nan nan nan nan nan nan nan nan nan nan nan nan nan nan nan 271 274 nan 277 274 270 266 263 260 262 263 267 270 266 262 263 252 244 250 246 243 247 250 257 261 nan nan nan nan 250 nan 234 234 233 229 233 238 236 238 245 247 248 249 252
322 326 323 317 311 307 306 300 295 293 295 nan nan nan nan nan nan nan nan nan nan nan nan nan nan nan nan nan nan nan nan nan nan nan nan nan nan nan nan nan nan nan nan nan nan nan nan nan 265 259 259 255 255 259 259 256 259 260 257 251 254 251 251 251 254 256 259 256 nan nan nan nan nan nan nan nan nan nan 233 233 239 245 245 244 244
323 315 307 306 305 303 304 300 nan 295 299 nan nan nan nan nan nan nan nan nan nan nan nan nan nan nan nan nan nan nan nan nan nan nan nan nan nan nan nan nan nan nan nan nan nan nan nan nan nan 264 263 259 253 254 258 260 260 258 258 261 nan nan nan nan nan nan 254 256 nan nan nan nan nan nan nan nan nan nan nan nan 232 237 242 244 234
300 305 302 303 301 303 302 302 299 nan nan nan nan nan nan nan nan nan nan nan nan nan nan nan nan nan nan nan nan nan nan nan nan nan nan nan nan nan nan nan nan nan nan nan nan nan nan nan nan nan nan nan nan nan nan nan nan nan nan nan nan nan nan nan nan nan nan nan nan nan nan nan nan nan nan nan nan nan nan nan nan 234 239 242 234